• In Hungary
  • List of Countries
  • For 7 days
  • Water Temperature
  • Satellite Maps
  • Weather Map
  • News
  • Weather Widgets
  • user-avatar
    Login

    Hourly Weather Kalemie

    Today, 23 September, Sunday

    Time Temperature Precipitation Wind Pressure Humidity
    00:00 +23°C° 0 mm 0 mps 704 mmHg 71%
    01:00 +22°C° 0 mm 0 mps 704 mmHg 73%
    02:00 +22°C° 0 mm 0 mps 704 mmHg 76%
    03:00 +21°C° 0 mm 0 mps 704 mmHg 78%
    04:00 +21°C° 0 mm 0 mps 704 mmHg 79%
    05:00 +21°C° 0 mm 0 mps 704 mmHg 81%
    06:00 +22°C° 0 mm 0 mps 705 mmHg 75%
    07:00 +24°C° 0 mm 0 mps 706 mmHg 70%
    08:00 +29°C° 0 mm 1 mps 707 mmHg 62%
    09:00 +30°C° 0 mm 1 mps 707 mmHg 56%
    10:00 +32°C° 0 mm 2 mps 707 mmHg 50%
    11:00 +35°C° 0 mm 2 mps 707 mmHg 43%
    12:00 +35°C° 0 mm 2 mps 706 mmHg 43%
    13:00 +35°C° 0 mm 2 mps 706 mmHg 43%
    14:00 +36°C° 0 mm 2 mps 705 mmHg 40%
    15:00 +34°C° 0 mm 1 mps 705 mmHg 44%
    16:00 +33°C° 0 mm 1 mps 705 mmHg 48%
    17:00 +33°C° 0 mm 1 mps 704 mmHg 52%
    18:00 +31°C° 0 mm 1 mps 704 mmHg 55%
    19:00 +27°C° 0 mm 0 mps 705 mmHg 57%
    20:00 +25°C° 0 mm 0 mps 705 mmHg 60%
    21:00 +25°C° 0 mm 0 mps 705 mmHg 62%
    22:00 +24°C° 0 mm 0 mps 705 mmHg 65%
    23:00 +24°C° 0 mm 0 mps 705 mmHg 67%

    Tomorrow, 24 September, Monday

    Time Temperature Precipitation Wind Pressure Humidity
    00:00 +23°C° 0 mm 0 mps 704 mmHg 69%
    01:00 +23°C° 0 mm 0 mps 704 mmHg 71%
    02:00 +22°C° 0 mm 0 mps 704 mmHg 73%
    03:00 +22°C° 0 mm 0 mps 704 mmHg 74%
    04:00 +22°C° 0 mm 0 mps 704 mmHg 75%
    05:00 +21°C° 0 mm 0 mps 704 mmHg 76%
    06:00 +23°C° 0 mm 0 mps 704 mmHg 71%
    07:00 +25°C° 0 mm 0 mps 705 mmHg 65%
    08:00 +29°C° 0 mm 1 mps 706 mmHg 60%
    09:00 +31°C° 0 mm 1 mps 706 mmHg 52%
    10:00 +35°C° 0 mm 2 mps 706 mmHg 43%
    11:00 +37°C° 0 mm 3 mps 707 mmHg 34%
    12:00 +37°C° 0 mm 3 mps 706 mmHg 34%
    13:00 +37°C° 0 mm 2 mps 705 mmHg 34%
    14:00 +37°C° 0 mm 2 mps 704 mmHg 33%
    15:00 +35°C° 0 mm 1 mps 704 mmHg 39%
    16:00 +33°C° 0 mm 1 mps 703 mmHg 44%
    17:00 +30°C° 0 mm 0 mps 703 mmHg 50%
    18:00 +30°C° 0.3 mm 1 mps 703 mmHg 55%
    19:00 +29°C° 0.3 mm 1 mps 704 mmHg 61%
    20:00 +27°C° 0.3 mm 1 mps 704 mmHg 67%
    21:00 +26°C° 1.1 mm 1 mps 704 mmHg 74%
    22:00 +25°C° 1.1 mm 1 mps 704 mmHg 80%
    23:00 +24°C° 1.1 mm 1 mps 704 mmHg 87%

    Day after tomorrow, 25 September, Tuesday

    Time Temperature Precipitation Wind Pressure Humidity
    00:00 +24°C° 0 mm 1 mps 704 mmHg 85%
    01:00 +23°C° 0 mm 1 mps 704 mmHg 84%
    02:00 +21°C° 0 mm 0 mps 704 mmHg 83%
    03:00 +23°C° 0.1 mm 1 mps 704 mmHg 85%
    04:00 +23°C° 0.1 mm 1 mps 704 mmHg 87%
    05:00 +22°C° 0.1 mm 1 mps 704 mmHg 90%
    06:00 +23°C° 0 mm 1 mps 705 mmHg 87%
    07:00 +24°C° 0 mm 2 mps 705 mmHg 84%
    08:00 +25°C° 0 mm 2 mps 706 mmHg 81%
    09:00 +27°C° 0 mm 2 mps 707 mmHg 74%
    10:00 +29°C° 0 mm 2 mps 707 mmHg 66%
    11:00 +31°C° 0 mm 2 mps 707 mmHg 58%
    12:00 +32°C° 0 mm 2 mps 706 mmHg 53%
    13:00 +34°C° 0 mm 2 mps 705 mmHg 49%
    14:00 +36°C° 0 mm 2 mps 705 mmHg 44%
    15:00 +34°C° 0 mm 2 mps 704 mmHg 49%
    16:00 +32°C° 0 mm 1 mps 704 mmHg 54%
    17:00 +31°C° 0 mm 1 mps 704 mmHg 59%
    18:00 +29°C° 0 mm 1 mps 704 mmHg 64%
    19:00 +28°C° 0 mm 1 mps 704 mmHg 69%
    20:00 +26°C° 0 mm 1 mps 705 mmHg 74%
    21:00 +26°C° 0 mm 1 mps 704 mmHg 75%
    22:00 +25°C° 0 mm 1 mps 704 mmHg 77%
    23:00 +25°C° 0 mm 1 mps 704 mmHg 79%

    26 September, Wednesday

    Time Temperature Precipitation Wind Pressure Humidity
    00:00 +24°C° 0 mm 1 mps 704 mmHg 80%
    01:00 +24°C° 0 mm 1 mps 704 mmHg 80%
    02:00 +24°C° 0 mm 1 mps 704 mmHg 81%
    03:00 +23°C° 1.1 mm 1 mps 704 mmHg 86%
    04:00 +23°C° 1.1 mm 1 mps 704 mmHg 91%
    05:00 +22°C° 1.1 mm 1 mps 704 mmHg 96%
    06:00 +23°C° 0.1 mm 1 mps 705 mmHg 91%
    07:00 +25°C° 0.1 mm 1 mps 706 mmHg 87%
    08:00 +27°C° 0.1 mm 1 mps 707 mmHg 82%
    09:00 +30°C° 0 mm 1 mps 707 mmHg 69%
    10:00 +33°C° 0 mm 1 mps 707 mmHg 56%
    11:00 +36°C° 0 mm 1 mps 707 mmHg 43%
    12:00 +36°C° 0 mm 1 mps 706 mmHg 41%
    13:00 +36°C° 0 mm 1 mps 705 mmHg 39%
    14:00 +37°C° 0 mm 1 mps 704 mmHg 37%
    15:00 +35°C° 0 mm 1 mps 704 mmHg 42%
    16:00 +32°C° 0 mm 0 mps 704 mmHg 47%
    17:00 +31°C° 0 mm 0 mps 703 mmHg 51%
    18:00 +29°C° 0 mm 0 mps 704 mmHg 53%
    19:00 +28°C° 0 mm 0 mps 704 mmHg 54%
    20:00 +28°C° 0 mm 1 mps 704 mmHg 56%
    21:00 +28°C° 0 mm 1 mps 704 mmHg 58%
    22:00 +27°C° 0 mm 1 mps 704 mmHg 60%
    23:00 +26°C° 0 mm 1 mps 705 mmHg 61%

    27 September, Thursday

    Time Temperature Precipitation Wind Pressure Humidity
    00:00 +26°C° 0.2 mm 1 mps 704 mmHg 68%
    01:00 +25°C° 0.2 mm 1 mps 704 mmHg 74%
    02:00 +24°C° 0.2 mm 2 mps 703 mmHg 80%
    03:00 +23°C° 0 mm 1 mps 703 mmHg 84%
    04:00 +23°C° 0 mm 1 mps 704 mmHg 87%
    05:00 +23°C° 0 mm 1 mps 704 mmHg 90%
    06:00 +24°C° 0 mm 1 mps 705 mmHg 87%
    07:00 +25°C° 0 mm 1 mps 705 mmHg 84%
    08:00 +26°C° 0 mm 1 mps 706 mmHg 81%
    09:00 +29°C° 0 mm 1 mps 706 mmHg 69%
    10:00 +32°C° 0 mm 1 mps 706 mmHg 58%
    11:00 +35°C° 0 mm 1 mps 706 mmHg 46%
    12:00 +36°C° 0 mm 1 mps 706 mmHg 43%
    13:00 +36°C° 0 mm 1 mps 705 mmHg 39%
    14:00 +37°C° 0 mm 1 mps 704 mmHg 35%
    15:00 +36°C° 0 mm 1 mps 704 mmHg 40%
    16:00 +35°C° 0 mm 1 mps 703 mmHg 44%
    17:00 +33°C° 0 mm 1 mps 703 mmHg 49%
    18:00 +32°C° 0 mm 1 mps 703 mmHg 52%
    19:00 +30°C° 0 mm 1 mps 704 mmHg 56%
    20:00 +28°C° 0 mm 1 mps 704 mmHg 59%
    21:00 +28°C° 0 mm 1 mps 704 mmHg 61%
    22:00 +27°C° 0 mm 1 mps 704 mmHg 63%
    23:00 +26°C° 0 mm 1 mps 704 mmHg 66%

    28 September, Friday

    Time Temperature Precipitation Wind Pressure Humidity
    00:00 +26°C° 0 mm 1 mps 703 mmHg 68%
    01:00 +26°C° 0 mm 1 mps 703 mmHg 71%
    02:00 +25°C° 0 mm 1 mps 703 mmHg 73%
    03:00 +24°C° 0.4 mm 1 mps 703 mmHg 79%
    04:00 +24°C° 0.4 mm 1 mps 703 mmHg 84%
    05:00 +23°C° 0.4 mm 2 mps 704 mmHg 90%
    06:00 +24°C° 0.5 mm 1 mps 705 mmHg 88%
    07:00 +25°C° 0.5 mm 1 mps 705 mmHg 87%
    08:00 +25°C° 0.5 mm 1 mps 706 mmHg 85%
    09:00 +29°C° 0 mm 1 mps 706 mmHg 72%
    10:00 +32°C° 0 mm 1 mps 706 mmHg 60%
    11:00 +35°C° 0 mm 1 mps 706 mmHg 47%
    12:00 +35°C° 0 mm 1 mps 705 mmHg 46%
    13:00 +35°C° 0 mm 1 mps 704 mmHg 45%
    14:00 +35°C° 0 mm 1 mps 703 mmHg 43%
    15:00 +34°C° 0 mm 1 mps 703 mmHg 46%
    16:00 +32°C° 0 mm 0 mps 703 mmHg 48%
    17:00 +31°C° 0 mm 0 mps 703 mmHg 51%
    18:00 +30°C° 0 mm 0 mps 703 mmHg 54%
    19:00 +30°C° 0 mm 1 mps 704 mmHg 57%
    20:00 +29°C° 0 mm 1 mps 704 mmHg 60%
    21:00 +28°C° 0 mm 1 mps 703 mmHg 62%
    22:00 +27°C° 0 mm 1 mps 703 mmHg 65%
    23:00 +27°C° 0 mm 1 mps 703 mmHg 67%
    Show more